Volver al catálogo

FREGAT DEB

LostUNKNOWN
NORAD 45646·DEBRIS·🇷🇺 Russia

Lanzado Jul 18, 2011 desde Baikonur Cosmodrome

Loading…

Próximos Pases (próximas 24 horas)

TLE

ObsoletoSource: Space-Track

Época: Jun 25, 2020, 16:30 UTC

1 45646U 11037AN  20177.68769722  .00113570  00000-0  72266-1 0  9992
2 45646  51.2371 324.7767 1508996  94.1129 283.2277 11.71807274  3233

Sigue FREGAT DEB en tiempo real con AllMySat

Download on the App Store